Triuchirapalli, India

7:20 AM IST on December 13, 2017 (GMT +0530)
Tiruchirappalli

Weather History for VOTR - October, 2011

Change the Weather History Date:

Saturday, October 8, 2011

  Actual Average Record
Temperature  
Mean Temperature 82 °F -  
Max Temperature 94 °F 85 °F 101 °F (2013)
Min Temperature 69 °F 75 °F 71 °F (2013)
Cooling Degree Days 16    
Growing Degree Days 32 (Base 50)    
Moisture  
Dew Point 74 °F    
Average Humidity 71    
Maximum Humidity 94    
Minimum Humidity 47    
Precipitation  
Precipitation 0.00 in - - ()
Sea Level Pressure  
Sea Level Pressure 29.83 in    
Wind  
Wind Speed 6 mph ()    
Max Wind Speed 13 mph    
Max Gust Speed -    
Visibility 4.7 miles    
Events Thunderstorm    
Averages and records for this station are not official NWS values.
T = Trace of Precipitation, MM = Missing Value Source: Averaged Metar Reports

Daily Weather History Graph

Daily Weather History Graph

Search for Another Location

Airport or City:

Trip Planner

Search our weather history database for the weather conditions in past years. The results will help you decide how hot, cold, wet, or windy it might be!

Date:

Astronomy

Oct. 08, 2011 Rise Set
Actual Time 6:03 AM IST 6:01 PM IST
Civil Twilight 5:42 AM IST 6:22 PM IST
Nautical Twilight 5:18 AM IST 6:47 PM IST
Astronomical Twilight 4:53 AM IST 7:11 PM IST
Moon 3:31 PM IST (10/8) 2:58 AM IST (10/8)
Length of Visible Light 12h 40m
Length of Day
11h 57m
Waxing Gibbous, 87% of the Moon is Illuminated
Oct 8
Waxing Gibbous
Oct 12
Full
Oct 20
Last Quarter
Oct 27
New
Nov 2
First Quarter

Hourly Weather History & Observations

Time (IST) Temp. Heat Index Dew Point Humidity Pressure Visibility Wind Dir Wind Speed Gust Speed Precip Events Conditions
12:40 AM 77.0 °F - 71.6 °F 83% 29.86 in 3.7 mi West 6.9 mph - N/A   Mostly Cloudy
1:10 AM 77.0 °F - 71.6 °F 83% 29.86 in 3.7 mi WNW 4.6 mph - N/A   Mostly Cloudy
1:40 AM 77.0 °F - 71.6 °F 83% 29.83 in 3.7 mi WNW 2.3 mph - N/A   Mostly Cloudy
2:10 AM 77.0 °F - 71.6 °F 83% 29.83 in 3.7 mi West 5.8 mph - N/A   Mostly Cloudy
2:40 AM 73.4 °F - 69.8 °F 88% 29.83 in 3.7 mi West 3.5 mph - N/A   Mostly Cloudy
3:10 AM 73.4 °F - 69.8 °F 88% 29.83 in 3.7 mi NW 3.5 mph - N/A   Mostly Cloudy
3:40 AM 73.4 °F - 69.8 °F 88% 29.83 in 3.1 mi NW 2.3 mph - N/A   Scattered Clouds
4:10 AM 73.4 °F - 69.8 °F 88% 29.80 in 3.1 mi West 2.3 mph - N/A   Haze
5:30 AM 74 °F - 71 °F 89% 29.82 in 2 mi West 5.8 mph - -   Haze
7:10 AM 75.2 °F - 73.4 °F 94% 29.83 in 5.0 mi West 8.1 mph - N/A   Scattered Clouds
7:40 AM 77.0 °F - 71.6 °F 83% 29.86 in 5.0 mi West 6.9 mph - N/A   Scattered Clouds
8:10 AM 78.8 °F - 71.6 °F 78% 29.86 in 6.2 mi WNW 11.5 mph - N/A   Scattered Clouds
8:30 AM 81 °F - 72 °F 68% 29.88 in 6 mi WNW 11.5 mph - -   Scattered Clouds
8:40 AM 80.6 °F 84.6 °F 71.6 °F 74% 29.89 in - WNW 12.7 mph - N/A   Clear
9:10 AM 82.4 °F 88.2 °F 73.4 °F 74% 29.89 in - West 11.5 mph - N/A   Clear
9:40 AM 84.2 °F 89.6 °F 71.6 °F 66% 29.89 in 6.2 mi WNW 10.4 mph - N/A   Partly Cloudy
10:10 AM 86.0 °F 93.4 °F 73.4 °F 66% 29.89 in - WNW 10.4 mph - N/A   Clear
10:40 AM 87.8 °F 95.6 °F 73.4 °F 62% 29.89 in - West 11.5 mph - N/A   Clear
11:10 AM 89.6 °F 98.2 °F 73.4 °F 59% 29.86 in - WNW 12.7 mph - N/A   Clear
11:30 AM 89 °F - 74 °F 54% 29.85 in 6 mi WNW 10.4 mph - -   Clear
11:40 AM 89.6 °F 99.8 °F 75.2 °F 62% 29.86 in - West 10.4 mph - N/A   Clear
12:10 PM 89.6 °F 99.8 °F 75.2 °F 62% 29.83 in - West 10.4 mph - N/A   Clear
12:40 PM 91.4 °F 105.1 °F 77.0 °F 63% 29.83 in 6.2 mi West 8.1 mph - N/A   Partly Cloudy
1:10 PM 93.2 °F 107.2 °F 77.0 °F 59% 29.80 in 6.2 mi West 8.1 mph - N/A   Partly Cloudy
1:40 PM 93.2 °F 107.2 °F 77.0 °F 59% 29.80 in 6.2 mi West 6.9 mph - N/A   Partly Cloudy
2:10 PM 93.2 °F 107.2 °F 77.0 °F 59% 29.77 in 6.2 mi West 6.9 mph - N/A   Partly Cloudy
2:30 PM 93 °F - 75 °F 47% 29.76 in 6 mi NW 4.6 mph - -   Scattered Clouds
2:40 PM 95.0 °F 109.7 °F 77.0 °F 56% 29.77 in 6.2 mi WNW 5.8 mph - N/A   Partly Cloudy
3:10 PM 95.0 °F 107.4 °F 75.2 °F 53% 29.74 in 6.2 mi West 5.8 mph - N/A   Partly Cloudy
3:40 PM 95.0 °F 107.4 °F 75.2 °F 53% 29.74 in 6.2 mi West 4.6 mph - N/A   Partly Cloudy
4:10 PM 95.0 °F 109.7 °F 77.0 °F 56% 29.74 in 6.2 mi WNW 4.6 mph - N/A   Partly Cloudy
5:10 PM 93.2 °F 110.2 °F 78.8 °F 63% 29.74 in 6.2 mi Calm Calm - N/A   Partly Cloudy
5:30 PM 93 °F - 77 °F 50% 29.74 in 6 mi Calm Calm - -   Scattered Clouds
6:10 PM 91.4 °F 111.0 °F 80.6 °F 71% 29.77 in 5.0 mi NE 3.5 mph - N/A   Scattered Clouds
7:10 PM 89.6 °F 108.2 °F 80.6 °F 75% 29.77 in 3.7 mi East 4.6 mph - N/A Thunderstorm Thunderstorm
7:40 PM 87.8 °F 104.9 °F 80.6 °F 79% 29.80 in 3.7 mi SSE 6.9 mph - N/A Thunderstorm Thunderstorm
8:30 PM 85 °F - 76 °F 68% 29.82 in 2 mi SSE 4.6 mph - -   Partly Cloudy
8:40 PM 86.0 °F 96.9 °F 77.0 °F 74% 29.83 in 3.7 mi South 4.6 mph - N/A   Scattered Clouds
9:40 PM 80.6 °F 84.6 °F 71.6 °F 74% 29.89 in 3.7 mi West 11.5 mph - N/A   Mostly Cloudy
10:10 PM 80.6 °F 84.6 °F 71.6 °F 74% 29.86 in 3.7 mi WSW 5.8 mph - N/A   Mostly Cloudy
10:40 PM 78.8 °F - 71.6 °F 78% 29.89 in 3.7 mi SSW 5.8 mph - N/A   Mostly Cloudy
11:10 PM 78.8 °F - 73.4 °F 83% 29.89 in 3.7 mi SW 6.9 mph - N/A   Scattered Clouds
11:30 PM 78 °F - 74 °F 84% 29.87 in 2 mi WSW 4.6 mph - -   Partly Cloudy